Regional Weather Roundup
Issued by NWS

Home | Current Version | Previous Version | Text Only | Print | Product List | Glossary On
Versions: 1 2 3 4 5 6 7 8 9 10 11 12 13 14 15 16 17 18 19 20 21 22 23 24 25 26 27 28 29 30 31 32 33 34 35 36 37 38 39 40 41 42 43 44 45 46 47 48 49 50
000
ASUS43 KMPX 222210
RWRMN
WEATHER ROUNDUP FOR MINNESOTA
NATIONAL WEATHER SERVICE TWIN CITIES/CHANHASSEN MN
400 PM CST SAT NOV 22 2014


NOTE: "FAIR" INDICATES FEW OR NO CLOUDS BELOW 12,000 FEET WITH NO
SIGNIFICANT WEATHER AND/OR OBSTRUCTIONS TO VISIBILITY. N/A MEANS
CURRENT SKY AND/OR WEATHER CONDITIONS ARE NOT AVAILABLE.

MNZ060>063-068>070-222300-
   Twin Cities Metro

CITY           SKY/WX    TMP DP  RH WIND       PRES   REMARKS
TWIN CITIES    CLOUDY    35  33  92 S8        29.67F FOG     WCI  29
ST PAUL        CLOUDY    35  34  96 S10       29.68F FOG     WCI  27
CRYSTAL        CLOUDY    36  33  89 S10       29.65F FOG
BLAINE         CLOUDY    36  36 100 SE7       29.66S FOG
LAKEVILLE      CLOUDY    34  34 100 S6        29.67S FOG     WCI  29
EDEN PRAIRIE   CLOUDY    35  34  96 S10       29.65F FOG     WCI  27
SOUTH ST PAUL  CLOUDY    36  34  92 S6        29.68F FOG
LAKE ELMO      CLOUDY    36  34  93 S7        29.68F FOG
$$
MNZ001>005-007-008-013>017-022>024-027-028-222300-
   Northwest Minnesota

CITY           SKY/WX    TMP DP  RH WIND       PRES   REMARKS
BEMIDJI        CLOUDY    39  30  70 E6        29.49F
HALLOCK        CLOUDY    37  30  75 E6        29.45F
ROSEAU         MOCLDY    36  30  80 E8        29.49F
WARROAD        MOCLDY    34  28  80 NE7       29.51F FOG     WCI  28
THIEF RVR FALL CLOUDY    36  30  80 E8        29.47F
CROOKSTON      CLOUDY    39  32  75 E6        29.46F
FOSSTON        CLOUDY    37  34  87 E3        29.47F
DETROIT LAKES  CLOUDY    41  32  70 SE9       29.47F
MOORHEAD       CLOUDY    43  34  70 SE12      29.44F
PARK RAPIDS    CLOUDY    43  30  60 SE10      29.48F
MAHNOMEN       FAIR      40  30  66 SE10      29.45F
$$
MNZ006-009>011-018-025>026-222300-
   North Central Minnesota

CITY           SKY/WX    TMP DP  RH WIND       PRES   REMARKS
BAUDETTE       MOCLDY    35  30  82 E7        29.51F WCI  29
FLAG ISLAND    CLOUDY    34  28  80 SE3       29.52F
INTL FALLS     CLOUDY    36  30  79 SE6       29.56S
WASKISH        MOCLDY    39  32  75 CALM      29.52F
BIG FORK       PTCLDY    41  28  60 SE3       29.56S
LONGVILLE      MOCLDY    39  28  65 S6        29.55F
GRAND RAPIDS   PTCLDY    39  28  65 S12       29.57S
CRANE LAKE     CLOUDY    34  30  86 CALM      29.60S
ORR            CLEAR     36  28  75 CALM      29.55S
COOK           CLEAR     34  30  86 CALM      29.59S
WALKER         FAIR      38  30  72 E6        29.52F
$$
MNZ012-019>021-037-222300-
   Northeast Minnesota

CITY           SKY/WX    TMP DP  RH WIND       PRES   REMARKS
DULUTH         PTCLDY    34  30  85 S5        29.62S FOG     WCI  30
ELY            CLOUDY    34  32  93 S6        29.60R FOG     WCI  29
HIBBING        CLEAR     40  28  62 SE10      29.58R
EVELETH        CLEAR     37  30  75 S9        29.60R
DULUTH HARBOR  CLOUDY    37  34  87 CALM      29.66R
TWO HARBORS    CLEAR     37  32  81 SW6       29.62S HAZE
SILVER BAY     CLEAR     36  30  80 CALM      29.62S HAZE
GRAND MARAIS     N/A     37  33  85 W6        29.66R
G MARAIS ARPRT CLOUDY    30  27  86 S3        29.62R
$$
MNZ029>031-032-039>041-046>048-054>057-064-222300-
   West Central Minnesota

CITY           SKY/WX    TMP DP  RH WIND       PRES   REMARKS
FERGUS FALLS   MOCLDY    39  28  65 SE9       29.48F
WHEATON        CLEAR     32  30  93 SE20      29.47F WCI  20
MORRIS         FOG       34  32  93 SE24      29.49F VSB 1/4 WCI  21
ALEXANDRIA     FOG       32  31  96 SE16G24   29.52F VSB 1/2 WCI  21
ELBOW LAKE       N/A     35  31  85 SE17G24   29.47F WCI  25
WADENA         CLOUDY    36  28  75 SE8       29.51F
GLENWOOD       FOG       32  30  93 SE18      29.54F VSB 1/2 WCI  20
APPLETON       PTCLDY    37  34  87 SE17G24   29.50F
BENSON         FOG       34  34 100 S10G21    29.52F VSB 3/4 WCI  26
ORTONVILLE     PTCLDY    36  30  80 SE15      29.48F
MADISON        MOCLDY    37  36  93 SE15      29.50R FOG
WILLMAR        FOG       36  34  93 SE16      29.56F VSB 3/4
$$
MNZ033>034-036-042>043-049>051-058-059-222300-
   Central Minnesota

CITY           SKY/WX    TMP DP  RH WIND       PRES   REMARKS
ST CLOUD       FOG       34  32  92 SE13      29.61F VSB 1   WCI  25
SAUK CENTRE    FOG       32  31  99 SE10      29.56F VSB 1/2 WCI  23
PAYNESVILLE    FOG       31  31 100 E10       29.59F VSB 1/4 WCI  22
AITKIN         PTCLDY    37  30  75 SE9       29.58F HAZE
PINE RIVER     CLOUDY    39  30  70 SE9       29.59S
BRAINERD       MOCLDY    34  30  85 S8        29.57F FOG     WCI  27
STAPLES        CLOUDY    37  28  70 SE10      29.53F
LONG PRAIRIE   FOG       32  32 100 SE13      29.56S VSB 3/4 WCI  22
LITTLE FALLS   CLOUDY    32  30  93 SE10      29.59F FOG     WCI  24
LITCHFIELD     FOG       36  36 100 SE8       29.61F VSB 1/2
BUFFALO        CLOUDY    34  32  93 SE8       29.65S FOG     WCI  27
MAPLE LAKE     CLOUDY    35  34  97 SE8       29.64S FOG     WCI  28
$$
MNZ037-044-045-052-053-222300-
   East Central Minnesota

CITY           SKY/WX    TMP DP  RH WIND       PRES   REMARKS
PRINCETON      CLOUDY    36  34  93 SE8       29.64F FOG
MORA           CLOUDY    34  32  93 SE3       29.65F FOG
CAMBRIDGE      CLOUDY    36  28  75 SE8       29.64S HAZE
RUSH CITY      CLOUDY    34  32  92 S7        29.66S WCI  28
MOOSE LAKE     CLOUDY    34  32  93 CALM      29.62R FOG
HINCKLEY       CLOUDY    34  32  93 S10       29.65S FOG     WCI  26
CLOQUET        CLOUDY    36  30  80 S3        29.62S FOG
MCGREGOR       CLEAR     36  32  87 SE9       29.61S
$$
MNZ071>073-080-081-089-090-097-098-222300-
   Southwest Minnesota

CITY           SKY/WX    TMP DP  RH WIND       PRES   REMARKS
MONTEVIDEO     CLOUDY    36  36 100 S14       29.53F FOG
GRANITE FALLS  CLOUDY    36  33  91 SE17      29.55F FOG
CANBY          CLOUDY    38  33  84 S10       29.50S
MARSHALL       CLOUDY    37  32  81 S12G17    29.52F
REDWOOD FALLS  CLOUDY    37  34  89 S15       29.57F
OLIVIA         CLOUDY    36  34  93 SE13G18   29.56F FOG
PIPESTONE      CLOUDY    37  36  93 S17       29.51F FOG
WINDOM         CLOUDY    37  37 100 S12G18    29.57F FOG
WORTHINGTON    MOCLDY    37  36  93 S16       29.56F
JACKSON        CLOUDY    37  36  93 S16G22      N/A  FOG
TRACY          MOCLDY    37  36  93 S16G22    29.52F FOG
SLAYTON        CLOUDY    36  36 100 S21       29.54F FOG
$$
MNZ065>067-074>077-082>085-091>093-222300-
   South Central Minnesota

CITY           SKY/WX    TMP DP  RH WIND       PRES   REMARKS
MANKATO        CLOUDY    37  34  87 S13       29.64F
NEW ULM        MOCLDY    36  36 100 S13       29.61F FOG
ST JAMES       CLOUDY    39  36  87 S12       29.62F FOG
FAIRMONT       CLOUDY    39  34  81 S18       29.62F
GLENCOE        CLOUDY    36  36  99 SE8       29.63S FOG
FARIBAULT      CLOUDY    36  36 100 S8        29.67S FOG
OWATONNA       FOG       37  36  93 S9        29.67F VSB 1
WASECA         FOG       36  32  87 S12       29.67S VSB 1
ALBERT LEA     CLOUDY    39  39 100 S10G17    29.66F FOG
$$
MNZ078>079-086>088-094>096-222300-
   Southeast Minnesota

CITY           SKY/WX    TMP DP  RH WIND       PRES   REMARKS
ROCHESTER      FOG       36  36 100 S9        29.70R VSB 1/4
RED WING         N/A     37  36  93 S6        29.71R
STANTON        CLOUDY    37  34  89 S6        29.67S FOG
DODGE CENTER   FOG       37  37 100 SW8       29.67S VSB 1/2
WINONA         CLOUDY    37  36  93 CALM      29.72F FOG
AUSTIN         FOG       37  37 100 S8        29.67F VSB 1
PRESTON        FOG       37  37  98 S10G17    29.70F VSB 1/4
$$
ABBREVIATIONS USED IN REMARKS
   TC - TEMPERATURES IN CELSIUS
  WCI - WIND CHILL INDEX
   HX - HEAT INDEX
  VSB - VISIBILITY
$$


USA.gov is the U.S. government's official web portal to all federal, state and local government web resources and services.